Location: Sperry Observatory
(40.6664°N, 74.3236°W)
Time: 19:25:30
(UTC-04:00)

Amateur Radio Satellites - All Passes

Search period start: 24 May 2016 18:55
Search period end: 25 May 2016 18:55
Location: Sperry Observatory, 40.6664°N, 74.3236°W

Satellite Date Start Highest point End Downlink Frequencies (MHz)
Time Altitude Azimuth
GOMX 1 24 May 18:57:59 19:03:29 89° 253° (WSW) 19:08:58 467.674
HO-68 24 May 19:00:13 19:06:10 29° 61° (ENE) 19:12:06 435.675
LilacSat-2 24 May 19:11:23 19:14:39 27° 264° (W) 19:17:55 437.200
CUTE 1.7 + AOD 2 24 May 19:15:02 19:17:46 17° 66° (ENE) 19:20:32 437.475
O/OREOS (USA 219) 24 May 19:16:01 19:19:12 19° 56° (NE) 19:22:21 437.305
NOAA 18 24 May 19:18:41 19:23:13 26° 265° (W) 19:27:45 137.9125
CINEMA 3 24 May 19:24:46 19:28:44 26° 69° (ENE) 19:32:35 145.822/145.860
RS-15 24 May 19:30:49 19:42:01 59° 311° (NW) 19:53:55 29.354- 29.394
COMPASS 1 24 May 19:49:03 19:52:08 21° 67° (ENE) 19:55:14 437.405
Cubesat XI-IV 24 May 19:49:57 19:53:20 17° 268° (W) 19:56:46 437.490
AUBIESAT-1 24 May 19:52:46 19:57:02 79° 252° (WSW) 20:01:00 437.475
AAUSAT CUBESAT 2 24 May 19:55:11 19:58:08 19° 67° (ENE) 20:01:07 437.432
M-CUBED/EXP-1 PRIME 24 May 19:56:21 20:00:39 58° 254° (WSW) 20:04:38 437.505
BRITE-PL 24 May 19:56:31 19:59:41 15° 272° (W) 20:02:53 437.365/2234.400
STRAND 1 24 May 20:00:25 20:05:29 55° 101° (E) 20:10:31 437.568
Cosmos 2504 24 May 20:03:33 20:09:06 23° 293° (WNW) 20:14:53 435.465 / 435.565
DOVE 4 24 May 20:05:03 20:10:02 41° 263° (W) 20:14:53 437.250
CUBESAT XI-V 24 May 20:08:45 20:10:02 11° 299° (WNW) 20:11:19 437.345
PCSat 24 May 20:09:36 20:15:04 84° 244° (WSW) 20:20:28 145.827
CANX-2 24 May 20:21:06 20:25:17 76° 258° (WSW) 20:29:31 2200.000
BEESAT 2 24 May 20:27:27 20:29:14 13° 41° (NE) 20:31:01 435.950
SEEDS 24 May 20:30:45 20:34:55 87° 78° (ENE) 20:39:07 437.485
CUBEBUG 2 24 May 20:37:06 20:41:20 45° 73° (ENE) 20:45:28 437.445
Oscar 11 24 May 20:39:55 20:43:27 25° 68° (ENE) 20:47:00 145.826/435.025
GOMX 1 24 May 20:40:36 20:42:11 11° 273° (W) 20:43:46 467.674
GONETS M04 24 May 20:45:12 20:49:27 15° 75° (ENE) 20:53:40
HO-68 24 May 20:46:30 20:53:28 56° 259° (WSW) 21:00:30 435.675
ZACube-1 24 May 20:47:23 20:50:57 27° 70° (ENE) 20:54:29 437.345
CUTE 1.7 + AOD 2 24 May 20:49:21 20:53:17 40° 262° (W) 20:57:17 437.475
DELFI C3 24 May 20:54:02 20:56:28 16° 66° (ENE) 20:58:56 145.870
O/OREOS (USA 219) 24 May 20:54:34 20:58:50 44° 254° (WSW) 21:03:04 437.305
CINEMA 3 24 May 21:01:26 21:05:44 32° 263° (W) 21:09:55 145.822/145.860
BEESAT 3 24 May 21:07:32 21:11:20 44° 53° (NE) 21:15:07 437.485
UWE-3 24 May 21:12:45 21:17:07 79° 77° (ENE) 21:21:23 435.000/436.395/437.385
AIST 1 24 May 21:16:08 21:19:54 28° 90° (E) 21:23:41
COMPASS 1 24 May 21:23:48 21:27:30 31° 263° (W) 21:31:14 437.405
HUMSAT D 24 May 21:26:03 21:28:42 17° 66° (ENE) 21:31:22 437.325/437.525
FUNcube-1 24 May 21:26:35 21:30:49 70° 76° (ENE) 21:35:00 145.935
AAUSAT CUBESAT 2 24 May 21:29:39 21:33:23 33° 263° (W) 21:37:09 437.432
PRISM 24 May 21:38:16 21:42:27 71° 285° (WNW) 21:46:35 437.425
STRAND 1 24 May 21:40:41 21:44:12 19° 297° (WNW) 21:47:43 437.568
ISS 24 May 21:41:15 21:42:43 12° 129° (SE) 21:44:12 145.825
RS-15 24 May 21:48:40 21:57:52 25° 341° (NNW) 22:07:23 29.354- 29.394
PCSat 24 May 21:56:59 21:57:34 10° 259° (W) 21:58:07 145.827
DANDE 24 May 21:57:56 22:01:17 13° 55° (NE) 22:04:36 436.750
BEESAT 2 24 May 22:03:36 22:07:37 80° 237° (WSW) 22:11:34 435.950
AIST 2 24 May 22:09:33 22:10:43 11° 39° (NE) 22:11:52 435.215
CUBEBUG 2 24 May 22:15:29 22:18:09 16° 268° (W) 22:20:47 437.445
Oscar 11 24 May 22:15:50 22:19:29 27° 264° (W) 22:23:10 145.826/435.025
ANTELSAT 24 May 22:19:32 22:22:05 15° 92° (E) 22:24:38 437.575/2403.000
ZACube-1 24 May 22:23:39 22:27:11 25° 265° (W) 22:30:41 437.345
VELOX 1 24 May 22:25:55 22:27:27 12° 61° (ENE) 22:28:58 145.980
DELFI C3 24 May 22:27:20 22:31:01 38° 262° (W) 22:34:46 145.870
CUBEBUG 1 24 May 22:27:36 22:29:18 12° 62° (ENE) 22:31:02 437.445
DX 1 24 May 22:32:12 22:33:35 11° 61° (ENE) 22:34:57 434.975-435.025
CUSAT 1 24 May 22:32:52 22:40:04 36° 69° (ENE) 22:46:21 437.405
GONETS M04 24 May 22:35:57 22:44:44 80° 95° (E) 22:53:32
BEESAT 3 24 May 22:46:18 22:48:40 15° 250° (WSW) 22:51:01 437.485
Cosmos 2499 24 May 22:52:29 22:59:28 59° 91° (E) 23:06:55 435.465 / 435.565
AIST 1 24 May 22:53:55 22:57:28 23° 286° (WNW) 23:01:01
AISAT 24 May 22:59:00 23:02:44 27° 68° (ENE) 23:06:30 437.250
HUMSAT D 24 May 23:00:14 23:04:03 38° 262° (W) 23:07:52 437.325/437.525
SPROUT 24 May 23:09:33 23:11:23 13° 63° (ENE) 23:13:15 437.525
UNISAT 6 24 May 23:13:24 23:17:40 62° 101° (E) 23:21:58 437.425
ISS 24 May 23:15:31 23:18:46 70° 325° (NW) 23:22:02 145.825
TIGRISAT 24 May 23:22:06 23:26:23 74° 103° (ESE) 23:30:41 435.000
ESTCUBE 1 24 May 23:22:54 23:27:22 66° 74° (ENE) 23:31:52 437.505/2401.250
UKube-1 24 May 23:24:47 23:28:39 32° 69° (ENE) 23:32:31 .
PHONESAT 2.4 24 May 23:28:24 23:30:58 23° 154° (SSE) 23:33:33 2401.200-2431.200
DANDE 24 May 23:37:42 23:46:00 57° 75° (ENE) 23:53:45 436.750
POPSAT HIP 1 24 May 23:38:41 23:41:48 20° 94° (E) 23:44:54 437.405
QB50P1 24 May 23:39:22 23:42:33 21° 94° (E) 23:45:42 145.935-145.965
QB50P2 24 May 23:40:22 23:43:42 22° 95° (E) 23:47:00 145.880/145.840
POLYITAN 1 24 May 23:42:46 23:46:07 23° 95° (E) 23:49:28 437.675
AIST 2 24 May 23:45:44 23:49:54 78° 57° (ENE) 23:54:02 435.215
ANTELSAT 24 May 23:54:56 23:59:01 44° 287° (WNW) 00:03:08 437.575/2403.000
50 SAT 24 May 23:55:04 23:58:38 63° 259° (W) 00:02:16 437.505
VELOX 1 24 May 23:58:50 00:03:17 73° 258° (WSW) 00:07:46 145.980
NANOSAT C BR1 24 May 23:59:13 00:03:01 33° 97° (E) 00:06:48 145.865
CUBEBUG 1 25 May 00:00:36 00:05:00 69° 258° (WSW) 00:09:27 437.445
DX 1 25 May 00:04:47 00:09:09 73° 257° (WSW) 00:13:34 434.975-435.025
RS-15 25 May 00:06:49 00:16:13 25° 18° (NNE) 00:25:45 29.354- 29.394
CUSAT 1 25 May 00:14:54 00:22:22 47° 270° (W) 00:28:45 437.405
SO-50 25 May 00:31:27 00:35:07 21° 111° (ESE) 00:38:47 436.795
AISAT 25 May 00:35:16 00:39:07 28° 264° (W) 00:43:00 437.250
GONETS M04 25 May 00:36:06 00:42:34 22° 295° (WNW) 00:49:03
DUCHIFAT 1 25 May 00:39:07 00:43:19 88° 284° (WNW) 00:47:29 145.980
SPROUT 25 May 00:42:34 00:46:49 61° 259° (W) 00:51:05 437.525
JAS-2 25 May 00:46:41 00:52:43 26° 90° (E) 00:58:15 435.910
Cosmos 2499 25 May 00:47:21 00:53:08 25° 293° (WNW) 00:59:14 435.465 / 435.565
UNISAT 6 25 May 00:52:09 00:53:52 12° 297° (WNW) 00:55:36 437.425
ISS 25 May 00:53:27 00:55:41 17° 344° (NNW) 00:57:55 145.825
BEESAT 25 May 01:01:18 01:03:22 13° 61° (ENE) 01:05:26 436.000
UKube-1 25 May 01:01:22 01:04:43 22° 265° (W) 01:08:05 .
TIGRISAT 25 May 01:01:45 01:02:29 10° 298° (WNW) 01:03:12 435.000
ESTCUBE 1 25 May 01:03:11 01:04:36 11° 270° (W) 01:06:02 437.505/2401.250
PHONESAT 2.4 25 May 01:04:20 01:07:28 72° 170° (S) 01:10:36 2401.200-2431.200
BUGSAT 1 25 May 01:10:53 01:14:57 82° 283° (WNW) 01:18:57 437.445
POPSAT HIP 1 25 May 01:13:53 01:17:39 32° 290° (WNW) 01:21:23 437.405
QB50P1 25 May 01:14:39 01:18:21 31° 290° (WNW) 01:22:04 145.935-145.965
QB50P2 25 May 01:15:51 01:19:29 29° 291° (WNW) 01:23:08 145.880/145.840
POLYITAN 1 25 May 01:18:18 01:21:55 28° 291° (WNW) 01:25:31 437.675
TISAT 1 25 May 01:18:33 01:22:48 87° 254° (WSW) 01:27:03 437.305
DANDE 25 May 01:21:11 01:28:25 33° 274° (W) 01:35:14 436.750
NANOSAT C BR1 25 May 01:35:26 01:38:32 20° 293° (WNW) 01:41:38 145.865
Gurwin Techsat 1B 25 May 02:03:58 02:07:45 19° 93° (E) 02:11:31 435.225
Oscar 19 25 May 02:05:43 02:10:43 48° 99° (E) 02:15:40 437.125/150
SWISSCUBE 25 May 02:05:44 02:10:24 61° 73° (ENE) 02:15:06 437.505
ITUPSAT 1 25 May 02:10:09 02:14:49 60° 73° (ENE) 02:19:32 437.325
SO-50 25 May 02:10:31 02:15:17 49° 307° (NW) 02:20:03 436.795
RS-15 25 May 02:20:16 02:32:20 56° 48° (NE) 02:44:21 29.354- 29.394
JAS-2 25 May 02:30:45 02:38:14 61° 290° (WNW) 02:44:58 435.910
ISS 25 May 02:31:41 02:33:09 12° 4° (N) 02:34:37 145.825
BEESAT 25 May 02:35:47 02:40:30 74° 257° (WSW) 02:45:17 436.000
MOZHAYETS 4 25 May 02:40:59 02:42:21 11° 61° (ENE) 02:43:43
PHONESAT 2.4 25 May 02:41:05 02:44:13 83° 187° (S) 02:47:20 2401.200-2431.200
ITAMSAT 1 25 May 02:41:37 02:44:53 17° 92° (E) 02:48:08 435.822/435.867
KKS-1 25 May 02:46:26 02:49:28 18° 65° (ENE) 02:52:30 437.445
YUBILEINY 25 May 02:57:29 03:05:13 34° 71° (ENE) 03:12:57 435.215
STARS 25 May 03:29:52 03:33:32 26° 68° (ENE) 03:37:11 437.465
Gurwin Techsat 1B 25 May 03:42:50 03:47:59 52° 289° (WNW) 03:53:06 435.225
Oscar 19 25 May 03:45:51 03:49:41 21° 296° (WNW) 03:53:28 437.125/150
SWISSCUBE 25 May 03:46:13 03:48:36 14° 269° (W) 03:50:58 437.505
ITUPSAT 1 25 May 03:50:35 03:53:02 14° 269° (W) 03:55:30 437.325
Cosmos 2491 25 May 03:50:56 03:58:44 37° 85° (E) 04:06:32 435.465 / 435.565
AO-7 25 May 03:51:11 03:58:29 32° 97° (E) 04:05:43 29.400- 29.500
Cosmos 2504 25 May 04:00:15 04:06:45 24° 67° (ENE) 04:13:29 435.465 / 435.565
ISS 25 May 04:07:42 04:10:29 25° 24° (NNE) 04:13:14 145.825
MOZHAYETS 4 25 May 04:14:19 04:18:51 77° 257° (WSW) 04:23:27
PHONESAT 2.4 25 May 04:17:57 04:20:48 32° 203° (SSW) 04:23:37 2401.200-2431.200
JAS-2 25 May 04:18:41 04:21:34 13° 310° (NW) 04:24:23 435.910
ITAMSAT 1 25 May 04:19:35 04:24:43 59° 288° (WNW) 04:29:51 435.822/435.867
KKS-1 25 May 04:21:26 04:25:42 44° 261° (W) 04:29:59 437.445
RS-15 25 May 04:33:13 04:44:43 49° 251° (WSW) 04:56:09 29.354- 29.394
YUBILEINY 25 May 04:53:56 05:02:18 53° 270° (W) 05:10:43 435.215
STARS 25 May 05:05:58 05:09:47 28° 264° (W) 05:13:36 437.465
CUBESAT XI-V 25 May 05:31:15 05:35:53 77° 76° (ENE) 05:40:36 437.345
HORYU 2 25 May 05:39:12 05:43:36 64° 102° (ESE) 05:47:59 437.375
AO-7 25 May 05:43:26 05:51:33 57° 295° (WNW) 05:59:40 29.400- 29.500
ISS 25 May 05:43:54 05:47:03 47° 221° (SW) 05:50:12 145.825
Cosmos 2491 25 May 05:46:50 05:55:17 49° 285° (WNW) 06:03:48 435.465 / 435.565
Cosmos 2504 25 May 05:52:30 06:00:50 74° 266° (W) 06:09:36 435.465 / 435.565
AO-85 25 May 05:56:47 06:00:44 21° 109° (ESE) 06:04:41 145.980
NOAA 18 25 May 06:00:41 06:04:08 17° 92° (E) 06:07:36 137.9125
BRITE-PL 25 May 06:21:45 06:25:59 25° 92° (E) 06:29:55 437.365/2234.400
Cubesat XI-IV 25 May 06:25:48 06:30:05 24° 94° (E) 06:34:20 437.490
NOAA 15 25 May 06:31:17 06:36:15 39° 98° (E) 06:41:09 137.62
LilacSat-2 25 May 06:44:40 06:48:01 29° 97° (E) 06:51:21 437.200
GOMX 1 25 May 07:01:32 07:05:33 27° 94° (E) 07:09:20 467.674
CUTE-I 25 May 07:12:18 07:17:38 65° 102° (ESE) 07:22:57 437.470
CUBESAT XI-V 25 May 07:13:26 07:13:49 10° 272° (W) 07:14:12 437.345
STRAND 1 25 May 07:15:54 07:20:58 76° 74° (ENE) 07:26:06 437.568
HORYU 2 25 May 07:17:38 07:19:37 13° 298° (WNW) 07:21:37 437.375
AO-85 25 May 07:35:28 07:40:52 59° 305° (NW) 07:46:10 145.980
AO-7 25 May 07:39:07 07:42:32 13° 316° (NW) 07:45:59 29.400- 29.500
NOAA 18 25 May 07:39:48 07:45:12 62° 288° (WNW) 07:50:36 137.9125
Cosmos 2504 25 May 07:49:16 07:52:49 13° 284° (WNW) 07:56:27 435.465 / 435.565
BRITE-PL 25 May 07:59:46 08:04:34 37° 291° (WNW) 08:09:00 437.365/2234.400
DOVE 4 25 May 08:04:37 08:09:01 57° 100° (E) 08:13:11 437.250
Cubesat XI-IV 25 May 08:05:15 08:10:18 43° 290° (WNW) 08:15:19 437.490
CANX-2 25 May 08:07:12 08:10:17 19° 93° (E) 08:13:21 2200.000
NOAA 15 25 May 08:11:26 08:15:49 27° 295° (WNW) 08:20:10 137.62
HO-68 25 May 08:14:47 08:20:56 30° 95° (E) 08:27:02 435.675
SEEDS 25 May 08:16:14 08:18:43 15° 92° (E) 08:21:10 437.485
LilacSat-2 25 May 08:19:31 08:22:07 18° 292° (WNW) 08:24:42 437.200
PRISM 25 May 08:26:58 08:31:05 77° 76° (ENE) 08:35:15 437.425
CUTE 1.7 + AOD 2 25 May 08:34:24 08:38:16 33° 97° (E) 08:42:08 437.475
GOMX 1 25 May 08:39:31 08:43:37 29° 292° (WNW) 08:47:29 467.674
Cosmos 2499 25 May 08:43:26 08:49:54 23° 66° (ENE) 08:56:30 435.465 / 435.565
GONETS M04 25 May 08:47:01 08:55:02 39° 72° (ENE) 09:02:58
CUTE-I 25 May 08:53:45 08:57:08 17° 299° (WNW) 09:00:31 437.470
CINEMA 3 25 May 08:56:02 09:00:11 61° 100° (E) 09:04:17 145.822/145.860
STRAND 1 25 May 08:58:49 09:00:42 12° 271° (W) 09:02:36 437.568
AIST 1 25 May 09:00:09 09:04:33 83° 80° (E) 09:08:52
SO-50 25 May 09:02:39 09:06:09 20° 43° (NE) 09:09:35 436.795
UWE-3 25 May 09:03:53 09:06:19 15° 92° (E) 09:08:45 435.000/436.395/437.385
COMPASS 1 25 May 09:06:28 09:10:26 39° 98° (E) 09:14:22 437.405
AUBIESAT-1 25 May 09:06:30 09:09:50 76° 106° (ESE) 09:13:07 437.475
M-CUBED/EXP-1 PRIME 25 May 09:10:43 09:14:01 71° 289° (WNW) 09:17:15 437.505
PCSat 25 May 09:11:15 09:13:24 12° 102° (ESE) 09:15:32 145.827
AAUSAT CUBESAT 2 25 May 09:11:53 09:15:46 35° 97° (E) 09:19:37 437.432
FUNcube-1 25 May 09:16:29 09:18:24 13° 91° (E) 09:20:19 145.935
ANTELSAT 25 May 09:18:49 09:21:07 14° 64° (ENE) 09:23:25 437.575/2403.000
AO-85 25 May 09:20:00 09:22:25 13° 325° (NW) 09:24:48 145.980
O/OREOS (USA 219) 25 May 09:28:07 09:31:33 21° 101° (ESE) 09:34:59 437.305
CANX-2 25 May 09:42:19 09:46:14 36° 289° (WNW) 09:50:09 2200.000
DOVE 4 25 May 09:44:03 09:46:09 13° 298° (WNW) 09:48:14 437.250
SEEDS 25 May 09:50:34 09:54:38 45° 287° (WNW) 09:58:40 437.485
HO-68 25 May 10:01:59 10:08:52 52° 293° (WNW) 10:15:45 435.675
Oscar 11 25 May 10:02:28 10:06:43 53° 100° (E) 10:10:58 145.826/435.025
CUBEBUG 2 25 May 10:04:23 10:08:32 73° 284° (WNW) 10:12:42 437.445
DELFI C3 25 May 10:05:22 10:08:46 26° 96° (E) 10:12:09 145.870
CUTE 1.7 + AOD 2 25 May 10:10:41 10:13:55 21° 293° (WNW) 10:17:08 437.475
ZACube-1 25 May 10:11:09 10:15:17 59° 100° (E) 10:19:27 437.345
UNISAT 6 25 May 10:11:47 10:16:03 52° 73° (ENE) 10:20:16 437.425
TIGRISAT 25 May 10:20:14 10:24:34 61° 74° (ENE) 10:28:50 435.000
POPSAT HIP 1 25 May 10:31:36 10:34:09 16° 65° (ENE) 10:36:42 437.405
QB50P1 25 May 10:32:11 10:34:49 16° 65° (ENE) 10:37:27 145.935-145.965
QB50P2 25 May 10:33:16 10:36:05 18° 66° (ENE) 10:38:56 145.880/145.840
Cosmos 2499 25 May 10:35:18 10:43:52 79° 265° (W) 10:52:43 435.465 / 435.565
CINEMA 3 25 May 10:35:24 10:36:48 11° 297° (WNW) 10:38:11 145.822/145.860
POLYITAN 1 25 May 10:35:40 10:38:32 18° 66° (ENE) 10:41:23 437.675
UWE-3 25 May 10:39:03 10:42:59 42° 287° (WNW) 10:46:57 435.000/436.395/437.385
SO-50 25 May 10:42:25 10:47:01 57° 242° (WSW) 10:51:27 436.795
COMPASS 1 25 May 10:42:51 10:45:41 18° 294° (WNW) 10:48:32 437.405
HUMSAT D 25 May 10:43:41 10:47:24 31° 97° (E) 10:51:09 437.325/437.525
GONETS M04 25 May 10:43:48 10:51:54 46° 272° (W) 10:59:59
AAUSAT CUBESAT 2 25 May 10:48:01 10:50:59 19° 293° (WNW) 10:53:58 437.432
PCSat 25 May 10:50:35 10:56:00 84° 299° (WNW) 11:01:28 145.827
FUNcube-1 25 May 10:50:53 10:54:55 50° 287° (WNW) 10:59:00 145.935
NANOSAT C BR1 25 May 10:51:17 10:54:43 24° 68° (ENE) 10:58:09 145.865
ANTELSAT 25 May 10:53:06 10:57:24 54° 260° (W) 11:01:39 437.575/2403.000
JAS-2 25 May 11:00:33 11:03:57 14° 51° (NE) 11:07:26 435.910
O/OREOS (USA 219) 25 May 11:06:28 11:10:41 37° 298° (WNW) 11:14:56 437.305
ESTCUBE 1 25 May 11:17:12 11:19:42 14° 91° (E) 11:22:11 437.505/2401.250
50 SAT 25 May 11:26:52 11:27:55 11° 91° (E) 11:28:57 437.505
DUCHIFAT 1 25 May 11:30:19 11:34:29 63° 75° (ENE) 11:38:40 145.980
CUSAT 1 25 May 11:34:12 11:39:28 32° 85° (E) 11:45:46 437.405
Oscar 11 25 May 11:40:03 11:42:24 14° 296° (WNW) 11:44:44 145.826/435.025
DELFI C3 25 May 11:40:17 11:43:32 24° 291° (WNW) 11:46:46 145.870
ZACube-1 25 May 11:49:24 11:51:05 12° 296° (WNW) 11:52:47 437.345
VELOX 1 25 May 11:50:01 11:53:24 21° 94° (E) 11:56:46 145.980
CUBEBUG 1 25 May 11:50:13 11:53:39 22° 94° (E) 11:57:01 437.445
UNISAT 6 25 May 11:50:53 11:53:03 13° 268° (W) 11:55:13 437.425
DX 1 25 May 11:54:08 11:57:18 19° 94° (E) 12:00:26 434.975-435.025
BEESAT 2 25 May 11:56:16 11:59:04 19° 111° (ESE) 12:01:52 435.950
BUGSAT 1 25 May 11:59:45 12:03:56 64° 74° (ENE) 12:08:05 437.445
TIGRISAT 25 May 12:00:11 12:01:37 11° 269° (W) 12:03:03 435.000
POPSAT HIP 1 25 May 12:05:28 12:09:34 46° 261° (W) 12:13:39 437.405
QB50P1 25 May 12:06:11 12:10:15 44° 261° (W) 12:14:19 145.935-145.965
QB50P2 25 May 12:07:35 12:11:35 40° 262° (W) 12:15:37 145.880/145.840
POLYITAN 1 25 May 12:10:03 12:14:02 39° 262° (W) 12:18:01 437.675
HUMSAT D 25 May 12:19:44 12:22:50 21° 292° (WNW) 12:25:58 437.325/437.525
AISAT 25 May 12:25:02 12:29:23 54° 100° (E) 12:33:41 437.250
NANOSAT C BR1 25 May 12:26:42 12:30:20 27° 264° (W) 12:33:58 145.865
SPROUT 25 May 12:29:26 12:32:48 22° 94° (E) 12:36:08 437.525
Cosmos 2499 25 May 12:31:15 12:35:38 15° 283° (WNW) 12:40:07 435.465 / 435.565
BEESAT 3 25 May 12:34:57 12:38:52 89° 301° (WNW) 12:42:51 437.485
PCSat 25 May 12:37:05 12:40:14 15° 319° (NW) 12:43:24 145.827
JAS-2 25 May 12:40:15 12:47:21 64° 71° (ENE) 12:55:03 435.910
DANDE 25 May 12:45:46 12:50:42 54° 92° (E) 12:57:14 436.750
UKube-1 25 May 12:47:32 12:51:50 62° 102° (ESE) 12:56:05 .
ESTCUBE 1 25 May 12:52:22 12:56:49 53° 287° (WNW) 13:01:14 437.505/2401.250
50 SAT 25 May 12:58:19 13:01:54 46° 287° (WNW) 13:05:28 437.505
TISAT 1 25 May 13:04:17 13:06:35 14° 92° (E) 13:08:52 437.305
DUCHIFAT 1 25 May 13:09:46 13:10:35 10° 270° (W) 13:11:23 145.980
CUSAT 1 25 May 13:15:27 13:21:14 45° 288° (WNW) 13:28:23 437.405
Oscar 19 25 May 13:22:01 13:27:11 68° 73° (ENE) 13:32:22 437.125/150
Gurwin Techsat 1B 25 May 13:24:30 13:29:05 31° 67° (ENE) 13:33:41 435.225
VELOX 1 25 May 13:25:56 13:29:57 34° 290° (WNW) 13:33:55 145.980
CUBEBUG 1 25 May 13:26:03 13:29:58 32° 290° (WNW) 13:33:50 437.445
DX 1 25 May 13:29:35 13:33:36 36° 290° (WNW) 13:37:34 434.975-435.025
BEESAT 2 25 May 13:32:55 13:36:38 37° 308° (NW) 13:40:23 435.950
BUGSAT 1 25 May 13:38:59 13:39:41 10° 270° (W) 13:40:23 437.445
AIST 2 25 May 13:44:13 13:46:55 17° 111° (ESE) 13:49:39 435.215
ITAMSAT 1 25 May 13:59:01 14:03:13 26° 65° (ENE) 14:07:25 435.822/435.867
Cosmos 2491 25 May 14:02:15 14:07:40 17° 61° (ENE) 14:13:02 435.465 / 435.565
AISAT 25 May 14:02:56 14:05:23 15° 297° (WNW) 14:07:50 437.250
SPROUT 25 May 14:05:02 14:08:46 30° 290° (WNW) 14:12:28 437.525
SWISSCUBE 25 May 14:07:27 14:10:23 16° 92° (E) 14:13:17 437.505
ITUPSAT 1 25 May 14:12:12 14:15:06 16° 92° (E) 14:17:59 437.325
BEESAT 3 25 May 14:15:57 14:17:11 11° 320° (NW) 14:18:24 437.485
UKube-1 25 May 14:25:27 14:27:21 13° 298° (WNW) 14:29:14 .
JAS-2 25 May 14:27:00 14:32:51 26° 270° (W) 14:39:07 435.910
AO-85 25 May 14:28:47 14:31:55 17° 39° (NE) 14:34:52 145.980
DANDE 25 May 14:29:56 14:34:13 23° 298° (WNW) 14:39:25 436.750
BEESAT 25 May 14:36:32 14:40:40 28° 96° (E) 14:44:47 436.000
TISAT 1 25 May 14:38:29 14:42:28 45° 288° (WNW) 14:46:26 437.305
AO-7 25 May 14:49:45 14:57:25 44° 62° (ENE) 15:05:07 29.400- 29.500
Gurwin Techsat 1B 25 May 15:04:11 15:08:56 33° 263° (W) 15:13:44 435.225
Oscar 19 25 May 15:04:16 15:06:58 14° 270° (W) 15:09:41 437.125/150
AIST 2 25 May 15:21:07 15:25:04 43° 307° (NW) 15:29:02 435.215
ITAMSAT 1 25 May 15:37:39 15:42:28 39° 262° (W) 15:47:19 435.822/435.867
SWISSCUBE 25 May 15:43:48 15:48:29 53° 288° (WNW) 15:53:08 437.505
ITUPSAT 1 25 May 15:48:34 15:53:15 54° 288° (WNW) 15:57:55 437.325
Cosmos 2491 25 May 15:57:07 16:05:57 84° 84° (E) 16:14:39 435.465 / 435.565
YUBILEINY 25 May 15:58:16 16:06:03 38° 86° (E) 16:13:49 435.215
AO-85 25 May 16:08:21 16:13:00 70° 240° (WSW) 16:17:11 145.980
MOZHAYETS 4 25 May 16:10:02 16:13:52 25° 95° (E) 16:17:42
KKS-1 25 May 16:12:38 16:16:41 34° 98° (E) 16:20:42 437.445
BEESAT 25 May 16:14:15 16:18:24 30° 292° (WNW) 16:22:32 436.000
HORYU 2 25 May 16:36:42 16:41:01 56° 73° (ENE) 16:45:21 437.375
Cosmos 2504 25 May 16:41:49 16:45:42 15° 78° (ENE) 16:49:41 435.465 / 435.565
AO-7 25 May 16:42:25 16:50:09 43° 260° (W) 16:57:58 29.400- 29.500
RS-15 25 May 16:45:03 16:54:26 32° 103° (ESE) 17:04:11 29.354- 29.394
STARS 25 May 16:54:56 16:59:12 51° 100° (E) 17:03:25 437.465
CUTE-I 25 May 16:57:15 16:59:51 14° 59° (ENE) 17:02:28 437.470
NOAA 18 25 May 17:26:10 17:30:58 32° 66° (ENE) 17:35:45 137.9125
LilacSat-2 25 May 17:27:25 17:29:42 15° 67° (ENE) 17:31:59 437.200
CUBESAT XI-V 25 May 17:28:59 17:32:27 20° 93° (E) 17:35:53 437.345
BRITE-PL 25 May 17:30:57 17:35:50 31° 67° (ENE) 17:40:46 437.365/2234.400
MOZHAYETS 4 25 May 17:46:58 17:51:02 31° 291° (WNW) 17:55:06
Cubesat XI-IV 25 May 17:47:21 17:52:13 38° 69° (ENE) 17:57:06 437.490
KKS-1 25 May 17:49:38 17:53:02 22° 294° (WNW) 17:56:25 437.445
NOAA 15 25 May 17:50:51 17:56:04 61° 72° (ENE) 18:01:19 137.62
YUBILEINY 25 May 17:54:25 18:02:38 46° 285° (WNW) 18:10:55 435.215
Cosmos 2491 25 May 17:55:59 18:01:34 19° 282° (WNW) 18:07:09 435.465 / 435.565
PCSat 25 May 17:57:13 17:59:51 13° 39° (NE) 18:02:27 145.827
GOMX 1 25 May 18:08:03 18:12:54 33° 69° (ENE) 18:17:43 467.674
HORYU 2 25 May 18:15:51 18:17:55 13° 269° (W) 18:19:58 437.375
M-CUBED/EXP-1 PRIME 25 May 18:24:35 18:26:22 13° 60° (ENE) 18:28:06 437.505
Cosmos 2504 25 May 18:30:41 18:37:52 84° 277° (W) 18:45:27 435.465 / 435.565
STARS 25 May 18:32:36 18:35:07 15° 296° (WNW) 18:37:39 437.465
CUTE-I 25 May 18:33:53 18:39:11 81° 257° (WSW) 18:44:32 437.470
HO-68 25 May 18:44:11 18:49:29 23° 58° (ENE) 18:54:47 435.675
